Location: Bush Observatory
(40.2653°N, 94.3194°W)
Time: 18:31:10
(UTC-05:00)

Iridium 13 - Visible Passes

Search period start: 29 August 2015 00:00
Search period end: 08 September 2015 00:00
Orbit: 776 x 779 km, 86.4° (Epoch: 29 August)

Date Brightness Start Highest point End Pass type
(mag) Time Alt. Az. Time Alt. Az. Time Alt. Az.
29 Aug 7.3 21:16:55 10° SW 21:21:38 34° W 21:26:20 10° NNW visible
30 Aug 6.1 20:42:48 10° SSW 20:47:58 63° W 20:53:09 10° N visible
31 Aug 5.5 20:09:16 10° S 20:14:26 70° E 20:19:38 10° N visible
31 Aug 8.6 21:53:20 10° W 21:55:51 13° WNW 21:58:05 10° NW visible
01 Sep 8.0 21:17:41 10° SW 21:21:54 24° WNW 21:26:01 10° NNW visible
02 Sep 6.9 20:43:10 10° SSW 20:48:08 43° W 20:53:05 10° N visible
03 Sep 5.7 20:09:18 10° S 20:14:31 81° W 20:19:46 10° N visible
04 Sep 8.5 21:18:51 10° WSW 21:22:14 17° WNW 21:25:25 10° NW visible
05 Sep 9.0 06:08:05 10° NE 06:10:43 14° ENE 06:13:37 10° ESE visible
05 Sep 7.7 20:43:47 10° SW 20:48:22 30° W 20:52:53 10° NNW visible
06 Sep 6.4 20:09:33 10° SSW 20:14:39 55° W 20:19:47 10° N visible
07 Sep 8.9 21:20:52 10° W 21:22:39 11° WNW 21:24:04 10° NW visible
